Pian Rosa, Italy

12:28 AM CET on January 20, 2018 (GMT +0100)
Pian Rosa

Weather History for LIMH - September, 2013

Change the Weather History Date:

Monday, September 2, 2013

  Actual Average Record
Temperature  
Mean Temperature 33 °F -  
Max Temperature 38 °F 35 °F 48 °F (2016)
Min Temperature 28 °F 26 °F 17 °F (2017)
Degree Days  
Heating Degree Days 32    
Moisture  
Dew Point 22 °F    
Average Humidity 63    
Maximum Humidity 87    
Minimum Humidity 31    
Precipitation  
Precipitation 0.00 in - - ()
Sea Level Pressure  
Sea Level Pressure 30.57 in    
Wind  
Wind Speed 9 mph ()    
Max Wind Speed 22 mph    
Max Gust Speed -    
Visibility 6.2 miles    
Events      
Averages and records for this station are not official NWS values.
T = Trace of Precipitation, MM = Missing Value Source: Averaged Metar Reports

Daily Weather History Graph

Daily Weather History Graph

Search for Another Location

Airport or City:

Trip Planner

Search our weather history database for the weather conditions in past years. The results will help you decide how hot, cold, wet, or windy it might be!

Date:

Astronomy

Sep. 02, 2013 Rise Set
Actual Time 6:51 AM CEST 8:05 PM CEST
Civil Twilight 6:20 AM CEST 8:36 PM CEST
Nautical Twilight 5:43 AM CEST 9:13 PM CEST
Astronomical Twilight 5:03 AM CEST 9:52 PM CEST
Moon 3:47 AM CEST (9/2) 6:14 PM CEST (9/2)
Length of Visible Light 14h 15m
Length of Day
13h 14m
Waning Crescent, 9% of the Moon is Illuminated
Sep 2
Waning Crescent
Sep 5
New
Sep 12
First Quarter
Sep 19
Full
Sep 27
Last Quarter

Hourly Weather History & Observations

Time (CEST) Temp. Windchill Dew Point Humidity Pressure Visibility Wind Dir Wind Speed Gust Speed Precip Events Conditions
12:55 AM 30.2 °F 26.7 °F 26.6 °F 86% 30.51 in 6.2 mi East 3.5 mph - N/A   Partly Cloudy
1:55 AM 30.2 °F 21.9 °F 23.0 °F 75% 30.51 in - NE 9.2 mph - N/A   Clear
2:00 AM 31 °F - 23 °F 61%  in 6 mi NE 9.2 mph - -  
2:55 AM 30.2 °F 19.3 °F 14.0 °F 51% 30.51 in - ENE 15.0 mph - N/A   Clear
3:55 AM 32.0 °F 23.0 °F 10.4 °F 41% 30.51 in - ENE 11.5 mph - N/A   Clear
4:55 AM 30.2 °F 17.1 °F 12.2 °F 47% 30.48 in - ENE 21.9 mph - N/A   Clear
5:55 AM 30.2 °F 19.8 °F 10.4 °F 44% 30.48 in - ENE 13.8 mph - N/A   Clear
6:55 AM 28.4 °F 18.5 °F 15.8 °F 59% 30.48 in - NE 11.5 mph - N/A   Clear
7:55 AM 28.4 °F 18.5 °F 12.2 °F 51% 30.48 in 6.2 mi ENE 11.5 mph - N/A   Partly Cloudy
8:55 AM 30.2 °F 21.3 °F 10.4 °F 44% 30.51 in 6.2 mi ENE 10.4 mph - N/A   Partly Cloudy
9:55 AM 28.4 °F 18.0 °F 6.8 °F 40% 30.54 in 6.2 mi ENE 12.7 mph - N/A   Partly Cloudy
10:55 AM 30.2 °F 21.3 °F 10.4 °F 44% 30.57 in 6.2 mi ENE 10.4 mph - N/A   Partly Cloudy
11:00 AM 29 °F - 10 °F 31%  in 31 mi ENE 10.4 mph - -   Scattered Clouds
11:55 AM 32.0 °F 23.6 °F 19.4 °F 60% 30.57 in 6.2 mi ENE 10.4 mph - N/A   Partly Cloudy
12:55 PM 32.0 °F 24.2 °F 19.4 °F 60% 30.57 in 6.2 mi ENE 9.2 mph - N/A   Partly Cloudy
1:55 PM 33.8 °F 24.3 °F 24.8 °F 70% 30.57 in 6.2 mi ENE 13.8 mph - N/A   Partly Cloudy
2:00 PM 34 °F - 25 °F 58%  in 31 mi ENE 13.8 mph - -   Scattered Clouds
2:55 PM 33.8 °F 25.3 °F 26.6 °F 75% 30.60 in 6.2 mi NE 11.5 mph - N/A   Partly Cloudy
3:55 PM 35.6 °F 30.7 °F 28.4 °F 75% 30.60 in 6.2 mi ENE 5.8 mph - N/A   Partly Cloudy
4:55 PM 35.6 °F 28.6 °F 28.4 °F 75% 30.63 in 6.2 mi NE 9.2 mph - N/A   Partly Cloudy
5:00 PM 36 °F - 28 °F 65%  in 31 mi NE 9.2 mph - -   Scattered Clouds
5:55 PM 35.6 °F 28.6 °F 30.2 °F 81% 30.63 in 6.2 mi NE 9.2 mph - N/A   Partly Cloudy
6:55 PM 35.6 °F 28.6 °F 32.0 °F 87% 30.63 in 6.2 mi NE 9.2 mph - N/A   Partly Cloudy
7:55 PM 35.6 °F 28.0 °F 32.0 °F 87% 30.63 in - ENE 10.4 mph - N/A   Clear
8:00 PM 36 °F - 32 °F 79%  in 31 mi ENE 10.4 mph - -  
8:55 PM 35.6 °F 28.0 °F 32.0 °F 87% 30.66 in - ENE 10.4 mph - N/A   Clear
9:55 PM 37.4 °F 29.3 °F 28.4 °F 70% 30.66 in - ENE 12.7 mph - N/A   Clear
10:55 PM 37.4 °F 29.8 °F 26.6 °F 65% 30.69 in - NE 11.5 mph - N/A   Clear
11:00 PM 38 °F - 27 °F 53%  in 6 mi NE 11.5 mph - -  
11:55 PM 37.4 °F 31.4 °F 26.6 °F 65% 30.69 in - ENE 8.1 mph - N/A   Clear